Flag for Canada Weather past 2 weeks in Oakville, Ontario, Canada

Now
46 °F

Cool.


Feels Like: 46 °F
Forecast: 37 / 66 °F
Wind: 2 mph from Northwest

Location: Burlington Piers

Current Time: May 23, 2015 at 1:48:41 AM

Latest Report: May 23, 2015 at 1:00 AM


Visibility: N/A

Pressure: 30.33 "Hg

Humidity: 45%

Dew point: 25 °F

Location of OakvilleLocation

Historic Weather in Oakville — Graph

°F

Oakville temperature yesterday

Maximum temperature yesterday: 59 °F (at 3:00 PM)
Minimum temperature yesterday: 47 °F (at 6:00 AM)
Average temperature yesterday: 52 °F

Past Weeks' High & Low Weather Summary

 TemperatureHumidityPressure
High80 °F (May 18, 7:00 PM)100% (May 10, 2:00 PM)30.49 "Hg (May 10, 2:00 PM)
Low41 °F (May 20, 5:00 AM)19% (May 21, 5:00 PM)29.75 "Hg (May 12, 1:00 AM)
Average53 °F70%30.06 "Hg
* Reported Midnight between May 7 and May 8 — Midnight between May 22 and May 23, Oakville, Weather by CustomWeather, © 2015

Note: Actual official high and low records may vary slightly from our data, if they occured in-between our weather recording intervals... More about our weather records

Advertising

Oakville weather history for previous 24 hours

 ConditionsComfort  
Time TempWeatherWind HumidityBarometerVisibility
12:00 AM
Sat, May 23
46 °FCool.5 mph51%30.32 "HgN/A
11:00 PM
Fri, May 22
47 °FCool.7 mph42%30.32 "HgN/A
10:00 PM50 °FCool.7 mph26%30.29 "HgN/A
9:00 PM52 °FCool.9 mph22%30.26 "HgN/A
8:00 PM54 °FCool.12 mph20%30.23 "HgN/A
7:00 PM55 °FCool.17 mph22%30.21 "HgN/A
6:00 PM56 °FRefreshingly cool.17 mph24%30.19 "HgN/A
5:00 PM56 °FRefreshingly cool.16 mph23%30.16 "HgN/A
4:00 PM57 °FRefreshingly cool.17 mph20%30.14 "HgN/A
3:00 PM59 °FRefreshingly cool.12 mph28%30.10 "HgN/A
2:00 PM58 °FRefreshingly cool.15 mph32%30.09 "HgN/A
1:00 PM49 °FCool.9 mph60%30.07 "HgN/A
12:00 PM49 °FCool.10 mph61%30.06 "HgN/A
11:00 AM49 °FCool.10 mph65%30.06 "HgN/A
10:00 AM50 °FCool.8 mph59%30.05 "HgN/A
9:00 AM50 °FCool.3 mph59%30.04 "HgN/A
8:00 AM48 °FCool.6 mph59%30.02 "HgN/A
7:00 AM47 °FCool.3 mph56%30.00 "HgN/A
6:00 AM47 °FCool.8 mph58%29.97 "HgN/A
5:00 AM48 °FCool.9 mph49%29.93 "HgN/A
4:00 AM50 °FCool.8 mph47%29.92 "HgN/A
3:00 AM53 °FCool.7 mph40%29.90 "HgN/A
2:00 AM55 °FCool.10 mph41%29.88 "HgN/A
1:00 AM54 °FCool.10 mph60%29.88 "HgN/A
Weather by CustomWeather, © 2015

See weather overviewHow to use our weather pages